Tracking 21496 objects as of 30-Sep-2020
HD Live streaming from Space Station
objects crossing your sky now

OPS 9332 (IDSCS 17)

Track OPS 9332 (IDSCS 17) now!
OPS 9332 (IDSCS 17) is classified as:


NORAD ID: 2863
Int'l Code: 1967-066B
Perigee: 33,032.3 km
Apogee: 33,556.2 km
Inclination: 2.4 °
Period: 1,310.3 minutes
Semi major axis: 39665 km
RCS: 0.6309 m2 (medium)
Launch date: July 1, 1967
Source: United States (US)
Launch site: AIR FORCE EASTERN TEST RANGE (AFETR)
aabbcc
Your satellite tracking list
Your tracking list is empty




NASA's NSSDC Master Catalog

Two Line Element Set (TLE):
1  2863U 67066B   20273.26545396 -.00000120  00000-0  00000+0 0  9991
2  2863   2.4044 268.0314 0066045  28.2279  86.9770  1.09897406101924
Source of the keplerian elements: AFSPC